Other Surface Observations
Issued by NWS

Home | Current Version | Previous Version | Text Only | Print | Product List | Glossary On
Versions: 1 2 3 4 5 6 7 8 9 10 11 12 13 14 15 16 17 18 19 20 21 22 23 24 25 26 27 28 29 30 31 32 33 34 35 36 37 38 39 40 41 42 43 44 45 46 47 48 49 50
000
SXUS52 KTAE 091505
OSOTAE
OSOTAE
North Florida/South Alabama/Southwest Georgia Weather Roundup
National Weather Service Tallahassee Florida
1000 AM EST FRI DEC 09 2016

Note: "fair" indicates few or no clouds below 12,000 feet with no
significant weather and/or obstructions to visibility.

!FLZ017-115-028-034-025-091600
...North Florida...

CITY           SKY/WX    TMP DP  RH WIND       PRES   REMARKS
TALLAHASSEE    MOSUNNY   46  20  35 N13       30.45R WCI  40
APALACHICOLA   SUNNY     48  23  37 NE13G24   30.44R WCI  43
PERRY          MOSUNNY   47  24  40 N9G20     30.44R WCI  43
CROSS CITY     SUNNY     50  25  37 NE18G24   30.40F WCI  44
JACKSONVILLE   PTSUNNY   47  26  44 N13       30.41R WCI  41
$$

!FLZ112-006-005-002-011-091600
...Florida Panhandle...

CITY           SKY/WX    TMP DP  RH WIND       PRES   REMARKS
MARIANNA       SUNNY     43  22  43 NE15      30.48R WCI  36
BONIFAY        FAIR      43  21  41 N13       30.50S WCI  36
PANAMA CITY NW FAIR      44  24  45 N15       30.46R WCI  37
TYNDALL AFB    SUNNY     45  23  41 NE10      30.46R WCI  40
TYND DRONE APT FAIR      45  24  43 NE17      30.45S WCI  38
DE FUNIAK SPR  FAIR      39  21  48 NE14G20   30.49S WCI  31
EGLIN AFB      MOSUNNY   42  21  44 N16       30.49R WCI  33
DESTIN         SUNNY     45  25  45 N15G22    30.48S WCI  38
HURLBURT       SUNNY     42  20  41 NE15      30.48R WCI  34
CRESTVIEW      SUNNY     42  22  44 NE8G21    30.51S WCI  37
PENSACOLA      SUNNY     41  22  46 N15       30.51R WCI  33
$$

!ALZ063-066-091600
...South Alabama...

CITY           SKY/WX    TMP DP  RH WIND       PRES   REMARKS
DOTHAN         SUNNY     39  21  48 N15       30.52R WCI  31
OZARK CAIRNS   SUNNY     39  18  43 N12       30.49S WCI  32
FT RUCKER HELI SUNNY     40  19  43 NE8G21    30.50R WCI  34
RUCKER HELI 3  NOT AVBL
RUCKER HELI 2  FAIR      40  18  41 N13       30.49R WCI  32
FLORALA APT    SUNNY     39  21  48 NE14      30.52R WCI  31
ANDALUSIA      SUNNY     42  20  41 NE9       30.52R WCI  37
TROY           SUNNY     37  19  48 N12       30.53R WCI  29
EUFALA         FAIR      38  17  42 VRB7      30.50R WCI  33
MOBILE         SUNNY     37  19  48 N18       30.54R WCI  27
$$

!GAZ120>161-091600
...Southwest and South Central Georgia...

CITY           SKY/WX    TMP DP  RH WIND       PRES   REMARKS
THOMASVILLE    FAIR      45  27  49 N10       30.46S WCI  39
BAINBRIDGE     SUNNY     43  23  45 N12       30.48F WCI  37
MOODY AFB      MOSUNNY   44  22  41 N9        30.44R WCI  39
VALDOSTA       MOSUNNY   44  23  43 NE13      30.45R WCI  38
MOULTRIE       SUNNY     43  21  42 N9        30.46S WCI  37
BLAKELY        SUNNY     41  21  45 CALM      30.51R
ALBANY         SUNNY     41  17  38 N8        30.50S WCI  36
TIFTON         FAIR      40  23  49 N6        30.45S WCI  36
FITZGERALD     FAIR      41  24  49 N10       30.48S WCI  35
CORDELE        FAIR      40  18  40 N9        30.49R WCI  34
AMERICUS       FAIR      36  12  38 N12       30.50R WCI  27
HOMERVILLE     FAIR      45  27  49 N7        30.45R WCI  41
$$

!GMZ750-755-770-775-091600
...Coastal and Buoy Obs...

STATION/POSITION TIME  TEMP    WIND        PRES    VSBY  WAVE
                       AIR SEA DIR/SP/G                  HT/PER
                 (UTC) (F)     (DEG/KT/KT) (MB)    (MI)  (FT/S)
KEATON BEACH     1500   45      20/ 13/ 17 1029.6R
CEDAR KEY        1400   47      20/ 10/ 13 1028.7R
C TOWER          1500   47      30/ 23/ 26 1030.5R
APALACHICOLA BUO 1350   58 74   30/ 21/ 25 1027.4          7/ 6
PANAMA CITY BUOY 1350   56 74              1028.8          7/ 7
MOBILE BUOY      1450   52 74   20/ 23/ 29 1031.8R         8/ 7
ORANGE BCH AL BU 1350   42 69   30/ 21/ 25 1032.3          4/ 6
$$




USA.gov is the U.S. government's official web portal to all federal, state and local government web resources and services.